timestamp,wind_dir_avg,wind_spd_avg,wind_spd_max_dir,wind_spd_gust,battery_voltage,lat,long
2021-04-22 00:04:01+00:00,209.0,5.8,206.0,6.69,12.81,47.59359,-54.27349
2021-04-22 00:14:01+00:00,207.0,5.77,201.0,7.46,12.57,47.59359,-54.27349
2021-04-22 00:24:01+00:00,203.0,4.82,193.0,5.99,12.57,47.59359,-54.27349
2021-04-22 00:34:01+00:00,204.0,6.05,199.0,7.23,12.57,47.59359,-54.27349
2021-04-22 00:44:01+00:00,208.0,5.12,206.0,6.36,12.57,47.59359,-54.27349
2021-04-22 00:54:01+00:00,197.0,5.05,192.0,5.9,12.57,47.59359,-54.27349
2021-04-22 01:04:01+00:00,205.0,3.87,216.0,5.69,12.57,47.59359,-54.27349
2021-04-22 01:14:01+00:00,196.0,2.5,199.0,2.96,12.57,47.59359,-54.27349
2021-04-22 01:24:01+00:00,162.0,2.25,173.0,3.82,12.57,47.59359,-54.27349
2021-04-22 01:34:01+00:00,228.0,2.75,225.0,3.59,12.57,47.59359,-54.27349
2021-04-22 01:44:01+00:00,254.0,3.57,251.0,4.82,12.57,47.59359,-54.27349
2021-04-22 01:54:01+00:00,277.0,3.83,286.0,4.32,12.57,47.59359,-54.27349
2021-04-22 02:04:01+00:00,288.0,5.49,286.0,6.11,12.57,47.59359,-54.27349
2021-04-22 02:14:01+00:00,255.0,4.31,262.0,5.94,12.49,47.59359,-54.27349
2021-04-22 02:24:01+00:00,277.0,5.08,276.0,6.34,12.49,47.59359,-54.27349
2021-04-22 02:34:01+00:00,285.0,4.37,293.0,5.08,12.49,47.59359,-54.27349
2021-04-22 02:44:01+00:00,286.0,4.05,285.0,4.59,12.49,47.59359,-54.27349
2021-04-22 02:54:01+00:00,307.0,3.2,320.0,3.6,12.49,47.59359,-54.27349
2021-04-22 03:04:01+00:00,316.0,1.59,322.0,1.96,12.49,47.59359,-54.27349
2021-04-22 03:14:00+00:00,149.0,2.82,147.0,3.12,12.49,47.59359,-54.27349
2021-04-22 03:24:00+00:00,197.0,4.18,200.0,4.52,12.49,47.59359,-54.27349
2021-04-22 03:34:00+00:00,217.0,5.1,216.0,5.74,12.49,47.59359,-54.27349
2021-04-22 03:44:00+00:00,238.0,4.42,240.0,4.84,12.49,47.59359,-54.27349
2021-04-22 03:54:00+00:00,220.0,3.79,217.0,4.33,12.49,47.59359,-54.27349
2021-04-22 04:04:00+00:00,248.0,2.24,249.0,2.45,12.49,47.59359,-54.27349
2021-04-22 04:14:00+00:00,187.0,0.57,190.0,0.88,12.49,47.59359,-54.27349
2021-04-22 04:24:00+00:00,210.0,1.69,216.0,2.59,12.49,47.59359,-54.27349
2021-04-22 04:34:00+00:00,201.0,2.94,198.0,3.09,12.49,47.59359,-54.27349
2021-04-22 04:44:00+00:00,182.0,2.83,184.0,3.0,12.49,47.59359,-54.27349
2021-04-22 04:54:00+00:00,195.0,3.51,194.0,3.77,12.49,47.59359,-54.27349
2021-04-22 05:04:00+00:00,199.0,3.57,203.0,3.89,12.49,47.59359,-54.27349
2021-04-22 05:14:00+00:00,186.0,2.11,187.0,2.23,12.49,47.59359,-54.27349
2021-04-22 05:24:00+00:00,202.0,3.56,203.0,3.71,12.49,47.59359,-54.27349
2021-04-22 05:34:00+00:00,200.0,3.06,205.0,3.27,12.49,47.59359,-54.27349
2021-04-22 05:44:00+00:00,172.0,2.23,174.0,2.8,12.49,47.59359,-54.27349
2021-04-22 05:54:00+00:00,191.0,3.18,191.0,3.44,12.49,47.59359,-54.27349
2021-04-22 06:04:00+00:00,203.0,4.62,206.0,5.15,12.49,47.59359,-54.27349
2021-04-22 06:14:00+00:00,222.0,4.93,224.0,5.34,12.41,47.59359,-54.27349
2021-04-22 06:24:00+00:00,212.0,4.33,210.0,4.95,12.41,47.59359,-54.27349
2021-04-22 06:34:00+00:00,212.0,3.88,212.0,4.13,12.41,47.59359,-54.27349
2021-04-22 06:44:00+00:00,197.0,4.52,194.0,5.32,12.41,47.59359,-54.27349
2021-04-22 06:54:00+00:00,197.0,4.8,199.0,5.55,12.41,47.59359,-54.27349
2021-04-22 07:04:00+00:00,222.0,3.14,224.0,3.65,12.41,47.59359,-54.27349
2021-04-22 07:14:01+00:00,221.0,3.01,223.0,3.25,12.41,47.59359,-54.27349
2021-04-22 07:24:01+00:00,224.0,2.79,231.0,3.23,12.41,47.59359,-54.27349
2021-04-22 07:34:01+00:00,229.0,2.51,227.0,2.83,12.41,47.59359,-54.27349
2021-04-22 07:44:01+00:00,224.0,3.67,222.0,4.38,12.41,47.59359,-54.27349
2021-04-22 07:54:01+00:00,229.0,3.6,229.0,4.18,12.41,47.59359,-54.27349
2021-04-22 08:04:01+00:00,224.0,4.01,224.0,4.55,12.41,47.59359,-54.27349
2021-04-22 08:14:00+00:00,216.0,5.81,218.0,6.63,12.41,47.59359,-54.27349
2021-04-22 08:24:00+00:00,225.0,6.09,230.0,6.9,12.41,47.59359,-54.27349
2021-04-22 08:34:00+00:00,228.0,6.42,220.0,7.26,12.41,47.59359,-54.27349
2021-04-22 08:44:00+00:00,222.0,4.28,223.0,4.95,12.41,47.59359,-54.27349
2021-04-22 08:54:00+00:00,207.0,4.39,208.0,4.99,12.41,47.59359,-54.27349
2021-04-22 09:04:00+00:00,224.0,2.91,226.0,3.23,12.41,47.59359,-54.27349
2021-04-22 09:14:01+00:00,210.0,2.3,210.0,2.59,12.41,47.59359,-54.27349
2021-04-22 09:24:01+00:00,203.0,1.97,205.0,2.11,12.41,47.59359,-54.27349
2021-04-22 09:34:01+00:00,90.0,0.96,89.0,1.16,12.41,47.59359,-54.27349
2021-04-22 09:44:01+00:00,196.0,0.41,207.0,0.63,12.41,47.59359,-54.27349
2021-04-22 09:54:01+00:00,97.0,0.96,88.0,1.12,12.41,47.59359,-54.27349
2021-04-22 10:04:01+00:00,90.0,1.03,88.0,1.23,12.41,47.59359,-54.27349
2021-04-22 10:14:01+00:00,87.0,1.16,74.0,1.58,13.44,47.59359,-54.27349
2021-04-22 10:24:01+00:00,62.0,1.94,60.0,2.12,13.44,47.59359,-54.27349
2021-04-22 10:34:01+00:00,51.0,2.06,53.0,2.45,13.44,47.59359,-54.27349
2021-04-22 10:44:01+00:00,49.0,2.34,51.0,2.63,13.44,47.59359,-54.27349
2021-04-22 10:54:01+00:00,35.0,2.49,37.0,2.67,13.44,47.59359,-54.27349
2021-04-22 11:04:01+00:00,23.0,1.96,17.0,2.39,13.44,47.59359,-54.27349
2021-04-22 11:14:01+00:00,21.0,1.93,23.0,2.37,13.68,47.59359,-54.27349
2021-04-22 11:24:01+00:00,23.0,2.04,15.0,2.6,13.68,47.59359,-54.27349
2021-04-22 11:34:01+00:00,13.0,2.5,14.0,2.77,13.68,47.59359,-54.27349
2021-04-22 11:44:01+00:00,14.0,2.67,14.0,3.04,13.68,47.59359,-54.27349
2021-04-22 11:54:01+00:00,28.0,2.91,28.0,3.27,13.68,47.59359,-54.27349
2021-04-22 12:04:01+00:00,34.0,3.26,36.0,3.55,13.68,47.59359,-54.27349
2021-04-22 12:14:00+00:00,36.0,2.98,38.0,3.22,14.32,47.59359,-54.27349
2021-04-22 12:24:00+00:00,47.0,3.15,45.0,3.48,14.32,47.59359,-54.27349
2021-04-22 12:34:00+00:00,46.0,2.95,43.0,3.26,14.32,47.59359,-54.27349
2021-04-22 12:44:00+00:00,35.0,2.97,36.0,3.23,14.32,47.59359,-54.27349
2021-04-22 12:54:00+00:00,34.0,2.89,35.0,3.11,14.32,47.59359,-54.27349
2021-04-22 13:04:00+00:00,19.0,3.24,19.0,3.7,14.32,47.59359,-54.27349
2021-04-22 13:14:01+00:00,30.0,3.57,28.0,4.06,14.24,47.59359,-54.27349
2021-04-22 13:24:01+00:00,31.0,3.63,32.0,4.13,14.24,47.59359,-54.27349
2021-04-22 13:34:01+00:00,40.0,2.68,40.0,3.1,14.24,47.59359,-54.27349
2021-04-22 13:44:01+00:00,39.0,2.95,41.0,3.15,14.24,47.59359,-54.27349
2021-04-22 13:54:01+00:00,53.0,3.62,53.0,3.86,14.24,47.59359,-54.27349
2021-04-22 14:04:01+00:00,44.0,3.93,49.0,4.31,14.24,47.59359,-54.27349
2021-04-22 14:14:01+00:00,40.0,2.91,36.0,3.43,14.32,47.59359,-54.27349
2021-04-22 14:24:01+00:00,28.0,2.89,28.0,3.1,14.32,47.59359,-54.27349
2021-04-22 14:34:01+00:00,15.0,2.81,17.0,3.07,14.32,47.59359,-54.27349
2021-04-22 14:44:01+00:00,9.0,0.82,11.0,1.01,14.32,47.59359,-54.27349
2021-04-22 14:54:01+00:00,16.0,1.0,13.0,1.43,14.32,47.59359,-54.27349
2021-04-22 15:04:01+00:00,36.0,2.23,30.0,2.46,14.32,47.59359,-54.27349
2021-04-22 15:14:01+00:00,24.0,2.33,23.0,2.53,13.84,47.59359,-54.27349
2021-04-22 15:24:01+00:00,29.0,2.32,29.0,2.79,13.84,47.59359,-54.27349
2021-04-22 15:34:01+00:00,39.0,2.81,43.0,3.51,13.84,47.59359,-54.27349
2021-04-22 15:44:01+00:00,37.0,2.19,49.0,2.86,13.84,47.59359,-54.27349
2021-04-22 15:54:01+00:00,56.0,0.63,108.0,2.64,13.84,47.59359,-54.27349
2021-04-22 16:04:01+00:00,176.0,3.44,174.0,4.48,13.84,47.59359,-54.27349
2021-04-22 16:14:01+00:00,190.0,1.84,175.0,2.94,13.84,47.59359,-54.27349
2021-04-22 16:24:01+00:00,195.0,3.07,192.0,3.89,13.84,47.59359,-54.27349
2021-04-22 16:34:01+00:00,202.0,2.37,208.0,2.62,13.84,47.59359,-54.27349
2021-04-22 16:44:01+00:00,180.0,2.64,178.0,3.97,13.84,47.59359,-54.27349
2021-04-22 16:54:01+00:00,167.0,11.55,172.0,12.8,13.84,47.59359,-54.27349
2021-04-22 17:04:01+00:00,168.0,9.75,165.0,11.11,13.84,47.59359,-54.27349
2021-04-22 17:14:01+00:00,166.0,8.9,172.0,9.51,13.68,47.59359,-54.27349
2021-04-22 17:24:01+00:00,171.0,10.67,171.0,11.85,13.68,47.59359,-54.27349
2021-04-22 17:34:01+00:00,162.0,10.7,163.0,12.44,13.68,47.59359,-54.27349
2021-04-22 17:44:01+00:00,155.0,9.24,156.0,10.28,13.68,47.59359,-54.27349
2021-04-22 17:54:01+00:00,163.0,11.42,164.0,12.6,13.68,47.59359,-54.27349
2021-04-22 18:04:01+00:00,163.0,12.51,162.0,13.72,13.68,47.59359,-54.27349
2021-04-22 18:14:01+00:00,163.0,11.88,160.0,12.9,13.84,47.59359,-54.27349
2021-04-22 18:24:01+00:00,154.0,9.45,153.0,10.39,13.84,47.59359,-54.27349
2021-04-22 18:34:01+00:00,152.0,10.31,143.0,11.98,13.84,47.59359,-54.27349
2021-04-22 18:44:01+00:00,162.0,7.16,163.0,8.38,13.84,47.59359,-54.27349
2021-04-22 18:54:01+00:00,178.0,6.09,187.0,7.18,13.84,47.59359,-54.27349
2021-04-22 19:04:01+00:00,178.0,6.47,184.0,8.62,13.84,47.59359,-54.27349
2021-04-22 19:14:01+00:00,176.0,4.38,176.0,5.27,13.68,47.59359,-54.27349
2021-04-22 19:24:01+00:00,179.0,8.49,179.0,9.95,13.68,47.59359,-54.27349
2021-04-22 19:34:01+00:00,173.0,8.91,171.0,10.32,13.68,47.59359,-54.27349
2021-04-22 19:44:01+00:00,178.0,10.25,179.0,12.44,13.68,47.59359,-54.27349
2021-04-22 19:54:01+00:00,173.0,7.36,175.0,8.39,13.68,47.59359,-54.27349
2021-04-22 20:04:01+00:00,166.0,9.44,168.0,11.06,13.68,47.59359,-54.27349
2021-04-22 20:14:01+00:00,165.0,11.07,165.0,12.75,13.44,47.59359,-54.27349
2021-04-22 20:24:01+00:00,156.0,11.89,156.0,14.07,13.44,47.59359,-54.27349
2021-04-22 20:34:01+00:00,148.0,11.94,145.0,13.37,13.44,47.59359,-54.27349
2021-04-22 20:44:01+00:00,149.0,12.9,143.0,15.23,13.44,47.59359,-54.27349
2021-04-22 20:54:01+00:00,146.0,14.75,144.0,18.27,13.44,47.59359,-54.27349
2021-04-22 21:04:01+00:00,152.0,14.82,160.0,19.47,13.44,47.59359,-54.27349
2021-04-22 21:14:01+00:00,153.0,16.48,159.0,21.2,13.53,47.59359,-54.27349
2021-04-22 21:24:01+00:00,148.0,13.6,147.0,15.85,13.53,47.59359,-54.27349
2021-04-22 21:34:01+00:00,151.0,15.16,145.0,17.3,13.53,47.59359,-54.27349
2021-04-22 21:44:01+00:00,147.0,13.97,145.0,17.86,13.53,47.59359,-54.27349
2021-04-22 21:54:01+00:00,145.0,16.36,146.0,19.25,13.53,47.59359,-54.27349
2021-04-22 22:04:01+00:00,142.0,15.75,142.0,17.73,13.53,47.59359,-54.27349
2021-04-22 22:14:01+00:00,148.0,14.94,146.0,19.06,12.89,47.59359,-54.27349
2021-04-22 22:24:01+00:00,147.0,17.46,149.0,20.09,12.89,47.59359,-54.27349
2021-04-22 22:34:01+00:00,146.0,13.5,144.0,16.44,12.89,47.59359,-54.27349
2021-04-22 22:44:01+00:00,151.0,13.8,148.0,17.93,12.89,47.59359,-54.27349
2021-04-22 22:54:01+00:00,148.0,11.47,156.0,13.45,12.89,47.59359,-54.27349
2021-04-22 23:04:01+00:00,164.0,12.41,161.0,14.38,12.89,47.59359,-54.27349
2021-04-22 23:14:01+00:00,164.0,11.51,168.0,14.88,12.57,47.59359,-54.27349
2021-04-22 23:24:01+00:00,163.0,12.69,170.0,15.34,12.57,47.59359,-54.27349
2021-04-22 23:34:01+00:00,169.0,12.83,178.0,14.62,12.57,47.59359,-54.27349
2021-04-22 23:44:01+00:00,178.0,11.55,176.0,12.95,12.57,47.59359,-54.27349
2021-04-22 23:54:01+00:00,192.0,12.49,201.0,15.49,12.57,47.59359,-54.27349
